Edgartown, MA

8:43 PM EST on December 05, 2016 (GMT -0500)
Martha's Vineyard

Weather History for KMVY - July, 2013

Change the Weather History Date:

Friday, July 5, 2013

  Actual Average Record
Temperature  
Mean Temperature 76 °F -  
Max Temperature 84 °F 76 °F 91 °F (2010)
Min Temperature 71 °F 59 °F 46 °F (2015)
Cooling Degree Days 12    
Growing Degree Days 26 (Base 50)    
Moisture  
Dew Point 71 °F    
Average Humidity 83    
Maximum Humidity 93    
Minimum Humidity 72    
Precipitation  
Precipitation 0.00 in - - ()
Sea Level Pressure  
Sea Level Pressure 30.15 in    
Wind  
Wind Speed 10 mph (WSW)    
Max Wind Speed 13 mph    
Max Gust Speed 20 mph    
Visibility 10 miles    
Events      
Averages and records for this station are not official NWS values.
T = Trace of Precipitation, MM = Missing Value Source: NWS Daily Summary

Daily Weather History Graph

Daily Weather History Graph

Search for Another Location

Airport or City:

Trip Planner

Search our weather history database for the weather conditions in past years. The results will help you decide how hot, cold, wet, or windy it might be!

Date:

Astronomy

Jul. 05, 2013 Rise Set
Actual Time 5:15 AM EDT 8:18 PM EDT
Civil Twilight 4:41 AM EDT 8:52 PM EDT
Nautical Twilight 3:58 AM EDT 9:35 PM EDT
Astronomical Twilight 3:08 AM EDT 10:25 PM EDT
Moon 3:12 AM EDT (7/5) 6:10 PM EDT (7/5)
Length of Visible Light 16h 10m
Length of Day
15h 03m
Waning Crescent, 6% of the Moon is Illuminated
Jul 5
Waning Crescent
Jul 8
New
Jul 15
First Quarter
Jul 22
Full
Jul 29
Last Quarter

Hourly Weather History & Observations

Time (EDT) Temp. Heat Index Dew Point Humidity Pressure Visibility Wind Dir Wind Speed Gust Speed Precip Events Conditions
12:53 AM 73.0 °F - 70.0 °F 90% 30.18 in 10.0 mi WSW 10.4 mph 18.4 mph N/A   Partly Cloudy
1:53 AM 73.0 °F - 70.0 °F 90% 30.17 in 10.0 mi West 8.1 mph 17.3 mph N/A   Clear
2:53 AM 73.0 °F - 69.1 °F 87% 30.17 in 10.0 mi West 8.1 mph - N/A   Clear
3:53 AM 71.1 °F - 69.1 °F 93% 30.17 in 10.0 mi West 6.9 mph - N/A   Clear
4:53 AM 72.0 °F - 69.1 °F 91% 30.18 in 10.0 mi WSW 9.2 mph - N/A   Clear
5:53 AM 72.0 °F - 69.1 °F 91% 30.19 in 10.0 mi WSW 6.9 mph - N/A   Clear
6:53 AM 73.9 °F - 70.0 °F 87% 30.19 in 10.0 mi West 8.1 mph - N/A   Clear
7:53 AM 77.0 °F - 71.1 °F 82% 30.19 in 10.0 mi West 12.7 mph 17.3 mph N/A   Clear
8:53 AM 80.1 °F 84.2 °F 73.0 °F 79% 30.19 in 10.0 mi West 10.4 mph - N/A   Clear
9:53 AM 81.0 °F 85.8 °F 73.0 °F 77% 30.18 in 10.0 mi West 9.2 mph - N/A   Clear
10:53 AM 82.0 °F 87.4 °F 73.0 °F 74% 30.18 in 10.0 mi SSW 9.2 mph 18.4 mph N/A   Clear
11:53 AM 82.9 °F 89.4 °F 73.9 °F 74% 30.18 in 10.0 mi SSW 10.4 mph - N/A   Clear
12:53 PM 82.0 °F 87.4 °F 73.0 °F 74% 30.17 in 10.0 mi SSW 11.5 mph - N/A   Clear
1:53 PM 82.9 °F 88.8 °F 73.0 °F 72% 30.16 in 10.0 mi SW 10.4 mph - N/A   Clear
2:53 PM 81.0 °F 85.2 °F 72.0 °F 74% 30.15 in 10.0 mi SW 12.7 mph 19.6 mph N/A   Clear
3:53 PM 81.0 °F 85.2 °F 72.0 °F 74% 30.13 in 10.0 mi SW 11.5 mph - N/A   Clear
4:53 PM 80.1 °F 83.8 °F 72.0 °F 76% 30.12 in 10.0 mi SW 12.7 mph - N/A   Clear
5:53 PM 79.0 °F - 71.1 °F 77% 30.12 in 10.0 mi SW 10.4 mph 18.4 mph N/A   Clear
6:53 PM 77.0 °F - 71.1 °F 82% 30.11 in 10.0 mi SW 12.7 mph 17.3 mph N/A   Clear
7:53 PM 75.0 °F - 69.1 °F 82% 30.11 in 10.0 mi SW 10.4 mph - N/A   Clear
8:53 PM 73.9 °F - 70.0 °F 87% 30.10 in 10.0 mi SW 9.2 mph - N/A   Clear
9:53 PM 73.9 °F - 71.1 °F 91% 30.12 in 10.0 mi WSW 11.5 mph 19.6 mph N/A   Clear
10:53 PM 73.9 °F - 71.1 °F 91% 30.11 in 10.0 mi WSW 10.4 mph 19.6 mph N/A   Clear
11:53 PM 73.9 °F - 70.0 °F 87% 30.11 in 10.0 mi WSW 9.2 mph 18.4 mph N/A   Clear